QPF
0.00 0.00 0.00 0.00 0.00 0.00 0.01 0.01 0.01 0.01 0.01 0.02 0.03 0.05 0.06 0.06 0.07 0.07 0.07 0.08 0.06 0.04 0.03 0.02 0.02 0.02 0.03 0.03 0.03 0.02 0.02 0.02 0.01 0.01 0.00 0.00 0.00 0.00 0.00 0.00 0.00 0.00 0.00
0.00 0.00 0.00 0.00 0.00 0.01 0.01 0.01 0.02 0.02 0.02 0.01 0.02 0.03 0.04 0.06 0.09 0.09 0.08 0.08 0.06 0.04 0.03 0.03 0.04 0.03 0.02 0.02 0.02 0.02 0.03 0.03 0.02 0.02 0.01 0.00 0.00 0.00 0.00 0.00 0.00 0.00 0.00
0.00 0.00 0.00 0.00 0.00 0.00 0.01 0.01 0.02 0.02 0.02 0.02 0.03 0.03 0.04 0.06 0.09 0.09 0.09 0.08 0.05 0.04 0.03 0.03 0.05 0.06 0.03 0.02 0.02 0.02 0.03 0.04 0.03 0.02 0.01 0.00 0.00 0.00 0.00 0.00 0.00 0.00 0.00
0.00 0.00 0.00 0.00 0.00 0.00 0.00 0.00 0.01 0.01 0.02 0.02 0.02 0.02 0.03 0.05 0.06 0.06 0.08 0.08 0.06 0.05 0.04 0.03 0.05 0.04 0.03 0.03 0.02 0.03 0.04 0.05 0.04 0.02 0.01 0.00 0.00 0.00 0.00 0.00 0.00 0.00 0.00
0.00 0.00 0.00 0.00 0.00 0.00 0.00 0.00 0.00 0.00 0.00 0.01 0.01 0.01 0.02 0.03 0.04 0.05 0.05 0.05 0.06 0.05 0.04 0.03 0.04 0.04 0.04 0.03 0.02 0.03 0.05 0.05 0.04 0.02 0.01 0.01 0.00 0.00 0.00 0.00 0.00 0.00 0.00
0.01 0.01 0.00 0.00 0.00 0.00 0.00 0.00 0.00 0.00 0.00 0.00 0.00 0.01 0.01 0.02 0.02 0.03 0.03 0.03 0.05 0.05 0.04 0.03 0.05 0.05 0.03 0.02 0.03 0.04 0.05 0.05 0.05 0.03 0.01 0.00 0.00 0.00 0.00 0.00 0.00 0.00 0.00
0.05 0.05 0.03 0.02 0.01 0.01 0.01 0.01 0.01 0.01 0.00 0.00 0.00 0.00 0.01 0.01 0.01 0.02 0.04 0.03 0.03 0.03 0.03 0.04 0.05 0.06 0.07 0.03 0.02 0.02 0.02 0.05 0.07 0.07 0.05 0.02 0.01 0.00 0.00 0.00 0.00 0.00 0.00
0.08 0.08 0.08 0.06 0.06 0.05 0.02 0.02 0.02 0.02 0.01 0.01 0.01 0.00 0.00 0.00 0.00 0.01 0.03 0.03 0.03 0.03 0.04 0.06 0.07 0.08 0.09 0.09 0.08 0.05 0.02 0.03 0.06 0.06 0.06 0.08 0.06 0.03 0.01 0.00 0.00 0.00 0.00
0.06 0.08 0.10 0.11 0.11 0.10 0.06 0.05 0.05 0.04 0.03 0.02 0.01 0.00 0.00 0.00 0.00 0.00 0.01 0.01 0.02 0.03 0.05 0.07 0.07 0.06 0.10 0.12 0.10 0.08 0.06 0.04 0.11 0.16 0.17 0.15 0.10 0.04 0.01 0.00 0.00 0.00 0.00
0.04 0.07 0.09 0.11 0.11 0.12 0.13 0.13 0.10 0.08 0.06 0.04 0.02 0.01 0.00 0.00 0.00 0.01 0.01 0.01 0.02 0.04 0.06 0.08 0.10 0.08 0.08 0.07 0.07 0.07 0.06 0.07 0.09 0.11 0.13 0.11 0.08 0.04 0.02 0.01 0.00 0.00 0.00
0.01 0.02 0.03 0.06 0.09 0.13 0.17 0.18 0.18 0.17 0.12 0.06 0.03 0.02 0.01 0.00 0.00 0.01 0.01 0.01 0.02 0.04 0.08 0.12 0.12 0.11 0.09 0.07 0.06 0.05 0.06 0.10 0.13 0.15 0.16 0.11 0.06 0.02 0.01 0.01 0.01 0.00 0.00
0.00 0.00 0.01 0.02 0.04 0.08 0.13 0.19 0.23 0.22 0.20 0.13 0.06 0.02 0.01 0.01 0.00 0.01 0.01 0.01 0.02 0.04 0.08 0.08 0.08 0.07 0.08 0.08 0.07 0.06 0.05 0.04 0.04 0.07 0.09 0.07 0.05 0.03 0.03 0.02 0.02 0.01 0.00
0.00 0.00 0.00 0.00 0.01 0.05 0.13 0.21 0.26 0.27 0.24 0.17 0.10 0.04 0.01 0.01 0.00 0.01 0.03 0.02 0.02 0.03 0.05 0.05 0.05 0.04 0.04 0.04 0.04 0.04 0.03 0.02 0.02 0.03 0.04 0.05 0.07 0.07 0.06 0.05 0.03 0.01 0.00
0.00 0.00 0.00 0.00 0.01 0.03 0.08 0.14 0.19 0.21 0.18 0.13 0.08 0.04 0.01 0.00 0.00 0.00 0.02 0.04 0.03 0.02 0.01 0.01 0.02 0.02 0.02 0.03 0.03 0.02 0.01 0.01 0.02 0.02 0.03 0.05 0.07 0.07 0.06 0.05 0.04 0.02 0.01
0.00 0.00 0.00 0.00 0.01 0.02 0.04 0.06 0.07 0.07 0.07 0.05 0.03 0.01 0.01 0.00 0.01 0.01 0.01 0.01 0.02 0.03 0.01 0.00 0.00 0.00 0.01 0.01 0.01 0.01 0.01 0.00 0.01 0.01 0.02 0.03 0.04 0.05 0.06 0.07 0.06 0.04 0.02
0.00 0.00 0.00 0.00 0.00 0.00 0.01 0.01 0.02 0.03 0.03 0.02 0.02 0.02 0.01 0.01 0.02 0.02 0.02 0.02 0.03 0.03 0.02 0.00 0.00 0.00 0.00 0.00 0.00 0.00 0.00 0.00 0.01 0.04 0.05 0.06 0.07 0.08 0.08 0.08 0.08 0.06 0.04
0.00 0.00 0.00 0.00 0.00 0.00 0.00 0.00 0.00 0.00 0.01 0.01 0.01 0.02 0.02 0.02 0.02 0.03 0.04 0.06 0.06 0.05 0.03 0.02 0.01 0.00 0.00 0.00 0.00 0.00 0.00 0.00 0.02 0.06 0.12 0.17 0.19 0.21 0.20 0.17 0.14 0.11 0.09
0.00 0.00 0.00 0.00 0.00 0.00 0.00 0.00 0.00 0.00 0.00 0.00 0.00 0.01 0.01 0.01 0.01 0.01 0.01 0.02 0.03 0.04 0.03 0.03 0.02 0.01 0.00 0.00 0.00 0.00 0.00 0.00 0.01 0.03 0.07 0.15 0.23 0.32 0.35 0.33 0.31 0.27 0.21
0.00 0.00 0.00 0.00 0.00 0.00 0.00 0.00 0.01 0.00 0.00 0.00 0.00 0.00 0.00 0.00 0.00 0.01 0.00 0.00 0.00 0.01 0.01 0.01 0.01 0.00 0.00 0.00 0.00 0.00 0.00 0.00 0.01 0.01 0.03 0.07 0.13 0.20 0.30 0.36 0.38 0.41 0.36
0.00 0.00 0.00 0.00 0.00 0.00 0.00 0.00 0.00 0.00 0.01 0.00 0.00 0.00 0.00 0.00 0.00 0.00 0.00 0.00 0.00 0.00 0.00 0.00 0.00 0.00 0.00 0.00 0.00 0.00 0.00 0.00 0.01 0.02 0.03 0.05 0.08 0.11 0.15 0.21 0.24 0.25 0.23
0.00 0.00 0.00 0.00 0.00 0.00 0.00 0.00 0.00 0.00 0.00 0.00 0.00 0.00 0.00 0.00 0.00 0.00 0.00 0.00 0.00 0.00 0.00 0.00 0.00 0.01 0.01 0.01 0.01 0.00 0.00 0.00 0.01 0.01 0.02 0.04 0.05 0.07 0.08 0.10 0.12 0.12 0.12
0.00 0.00 0.00 0.00 0.00 0.00 0.00 0.00 0.00 0.00 0.00 0.00 0.00 0.00 0.00 0.00 0.00 0.00 0.00 0.00 0.00 0.00 0.00 0.00 0.00 0.01 0.01 0.01 0.01 0.02 0.02 0.02 0.02 0.02 0.02 0.02 0.03 0.03 0.04 0.05 0.05 0.06 0.06
0.00 0.00 0.00 0.00 0.00 0.00 0.00 0.00 0.00 0.00 0.00 0.00 0.00 0.00 0.00 0.00 0.00 0.00 0.00 0.00 0.00 0.00 0.00 0.01 0.01 0.02 0.02 0.03 0.03 0.03 0.03 0.04 0.07 0.08 0.06 0.04 0.02 0.01 0.02 0.03 0.04 0.04 0.03
0.00 0.00 0.00 0.00 0.00 0.00 0.00 0.00 0.00 0.00 0.00 0.00 0.00 0.00 0.00 0.00 0.00 0.00 0.00 0.00 0.00 0.00 0.01 0.01 0.01 0.01 0.03 0.03 0.04 0.04 0.05 0.04 0.04 0.04 0.04 0.04 0.04 0.03 0.03 0.03 0.04 0.05 0.06
0.00 0.00 0.00 0.00 0.00 0.00 0.00 0.00 0.00 0.00 0.00 0.00 0.00 0.00 0.00 0.00 0.00 0.00 0.00 0.00 0.00 0.00 0.00 0.00 0.00 0.01 0.03 0.05 0.06 0.07 0.09 0.08 0.05 0.03 0.02 0.02 0.03 0.04 0.04 0.04 0.05 0.05 0.06
0.00 0.00 0.00 0.00 0.00 0.00 0.00 0.00 0.00 0.00 0.00 0.00 0.00 0.00 0.00 0.00 0.00 0.01 0.01 0.00 0.00 0.01 0.00 0.00 0.01 0.01 0.02 0.02 0.03 0.05 0.06 0.06 0.06 0.05 0.02 0.02 0.03 0.04 0.06 0.07 0.08 0.09 0.11
MSLP
1009.56 1009.88 1010.22 1010.53 1010.80 1011.00 1011.16 1011.29 1011.43 1011.60 1011.85 1012.15 1012.52 1012.92 1013.32 1013.69 1014.01 1014.28 1014.49 1014.67 1014.84 1015.03 1015.24 1015.50 1015.80 1016.12 1016.47 1016.84 1017.21 1017.60 1018.01 1018.44 1018.91 1019.40 1019.91 1020.41 1020.86 1021.24 1021.52 1021.68 1021.72 1021.66 1021.50
1009.41 1009.74 1010.08 1010.39 1010.66 1010.87 1011.03 1011.16 1011.29 1011.45 1011.66 1011.93 1012.26 1012.61 1012.98 1013.33 1013.63 1013.89 1014.10 1014.27 1014.43 1014.59 1014.77 1014.97 1015.21 1015.48 1015.79 1016.12 1016.49 1016.89 1017.34 1017.83 1018.37 1018.95 1019.54 1020.12 1020.66 1021.12 1021.48 1021.73 1021.85 1021.87 1021.79
1009.21 1009.56 1009.91 1010.23 1010.50 1010.72 1010.88 1011.01 1011.13 1011.28 1011.46 1011.69 1011.97 1012.28 1012.60 1012.92 1013.20 1013.44 1013.64 1013.80 1013.95 1014.09 1014.24 1014.41 1014.61 1014.85 1015.12 1015.44 1015.80 1016.22 1016.70 1017.23 1017.82 1018.46 1019.11 1019.75 1020.36 1020.89 1021.32 1021.64 1021.85 1021.95 1021.97
1008.95 1009.31 1009.67 1010.00 1010.29 1010.51 1010.69 1010.82 1010.95 1011.08 1011.24 1011.44 1011.68 1011.95 1012.23 1012.50 1012.75 1012.96 1013.14 1013.30 1013.43 1013.55 1013.69 1013.84 1014.02 1014.23 1014.48 1014.79 1015.15 1015.57 1016.05 1016.61 1017.22 1017.88 1018.56 1019.25 1019.89 1020.48 1020.98 1021.38 1021.67 1021.87 1021.99
1008.62 1009.00 1009.37 1009.70 1010.00 1010.23 1010.42 1010.58 1010.71 1010.85 1011.01 1011.19 1011.40 1011.64 1011.87 1012.11 1012.32 1012.50 1012.66 1012.79 1012.91 1013.02 1013.14 1013.27 1013.43 1013.63 1013.87 1014.16 1014.50 1014.91 1015.38 1015.93 1016.53 1017.18 1017.87 1018.56 1019.24 1019.86 1020.42 1020.90 1021.29 1021.60 1021.83
1008.28 1008.64 1009.00 1009.34 1009.63 1009.88 1010.09 1010.27 1010.43 1010.59 1010.76 1010.94 1011.15 1011.36 1011.57 1011.77 1011.94 1012.09 1012.21 1012.32 1012.41 1012.51 1012.61 1012.73 1012.88 1013.06 1013.28 1013.55 1013.87 1014.24 1014.68 1015.19 1015.75 1016.37 1017.04 1017.72 1018.40 1019.06 1019.67 1020.23 1020.72 1021.14 1021.49
1007.97 1008.30 1008.63 1008.94 1009.22 1009.47 1009.70 1009.90 1010.10 1010.29 1010.49 1010.70 1010.91 1011.12 1011.31 1011.48 1011.62 1011.74 1011.83 1011.90 1011.97 1012.04 1012.13 1012.24 1012.37 1012.54 1012.73 1012.97 1013.25 1013.59 1013.97 1014.42 1014.93 1015.49 1016.11 1016.77 1017.44 1018.12 1018.79 1019.42 1020.01 1020.54 1021.01
1007.75 1008.02 1008.29 1008.55 1008.80 1009.05 1009.28 1009.51 1009.75 1009.98 1010.22 1010.46 1010.69 1010.90 1011.08 1011.24 1011.35 1011.44 1011.50 1011.55 1011.59 1011.64 1011.71 1011.81 1011.93 1012.08 1012.26 1012.46 1012.71 1012.99 1013.31 1013.69 1014.13 1014.63 1015.19 1015.81 1016.47 1017.16 1017.87 1018.56 1019.24 1019.88 1020.46
1007.66 1007.85 1008.03 1008.23 1008.44 1008.66 1008.89 1009.13 1009.40 1009.67 1009.95 1010.22 1010.47 1010.70 1010.88 1011.02 1011.12 1011.18 1011.22 1011.25 1011.27 1011.31 1011.38 1011.47 1011.58 1011.72 1011.89 1012.07 1012.28 1012.52 1012.79 1013.10 1013.47 1013.90 1014.39 1014.96 1015.60 1016.28 1017.01 1017.75 1018.49 1019.20 1019.87
1007.71 1007.80 1007.90 1008.02 1008.17 1008.35 1008.56 1008.81 1009.09 1009.38 1009.69 1009.99 1010.26 1010.50 1010.68 1010.82 1010.91 1010.96 1010.98 1011.00 1011.02 1011.06 1011.13 1011.22 1011.35 1011.49 1011.66 1011.83 1012.02 1012.23 1012.45 1012.71 1013.01 1013.37 1013.80 1014.32 1014.91 1015.57 1016.29 1017.04 1017.81 1018.57 1019.29
1007.88 1007.87 1007.89 1007.93 1008.02 1008.15 1008.34 1008.58 1008.85 1009.16 1009.48 1009.79 1010.07 1010.31 1010.50 1010.63 1010.71 1010.76 1010.78 1010.80 1010.83 1010.88 1010.97 1011.08 1011.23 1011.40 1011.58 1011.77 1011.95 1012.14 1012.33 1012.55 1012.80 1013.10 1013.47 1013.92 1014.45 1015.06 1015.74 1016.48 1017.24 1018.00 1018.73
1008.11 1008.04 1007.99 1007.98 1008.01 1008.10 1008.26 1008.47 1008.73 1009.03 1009.33 1009.64 1009.91 1010.14 1010.33 1010.45 1010.54 1010.58 1010.61 1010.65 1010.70 1010.78 1010.90 1011.05 1011.24 1011.44 1011.66 1011.86 1012.06 1012.25 1012.43 1012.61 1012.82 1013.06 1013.36 1013.74 1014.20 1014.74 1015.35 1016.03 1016.74 1017.47 1018.18
1008.38 1008.27 1008.19 1008.14 1008.14 1008.20 1008.32 1008.51 1008.74 1009.01 1009.29 1009.57 1009.82 1010.03 1010.19 1010.31 1010.39 1010.45 1010.49 1010.55 1010.63 1010.75 1010.91 1011.11 1011.34 1011.59 1011.84 1012.08 1012.29 1012.49 1012.66 1012.82 1012.99 1013.18 1013.42 1013.72 1014.09 1014.54 1015.06 1015.65 1016.28 1016.94 1017.59
1008.63 1008.53 1008.44 1008.39 1008.38 1008.42 1008.53 1008.68 1008.88 1009.11 1009.35 1009.59 1009.80 1009.98 1010.13 1010.23 1010.31 1010.37 1010.43 1010.51 1010.63 1010.78 1010.98 1011.22 1011.49 1011.78 1012.06 1012.33 1012.57 1012.77 1012.94 1013.08 1013.22 1013.36 1013.53 1013.75 1014.03 1014.38 1014.79 1015.28 1015.81 1016.38 1016.97
1008.84 1008.78 1008.72 1008.69 1008.70 1008.75 1008.84 1008.97 1009.14 1009.32 1009.52 1009.71 1009.88 1010.02 1010.13 1010.22 1010.29 1010.36 1010.44 1010.54 1010.68 1010.87 1011.10 1011.36 1011.66 1011.97 1012.27 1012.55 1012.79 1013.00 1013.16 1013.28 1013.39 1013.48 1013.59 1013.74 1013.93 1014.18 1014.50 1014.88 1015.31 1015.79 1016.30
1009.00 1009.00 1009.00 1009.02 1009.06 1009.12 1009.22 1009.33 1009.47 1009.62 1009.77 1009.91 1010.03 1010.13 1010.22 1010.29 1010.35 1010.42 1010.51 1010.62 1010.78 1010.98 1011.22 1011.49 1011.79 1012.10 1012.39 1012.66 1012.90 1013.09 1013.24 1013.34 1013.42 1013.47 1013.54 1013.62 1013.74 1013.91 1014.14 1014.43 1014.78 1015.18 1015.62
1009.11 1009.18 1009.25 1009.33 1009.41 1009.50 1009.60 1009.72 1009.83 1009.94 1010.05 1010.15 1010.23 1010.30 1010.36 1010.41 1010.47 1010.54 1010.63 1010.75 1010.91 1011.10 1011.33 1011.59 1011.86 1012.14 1012.41 1012.65 1012.85 1013.02 1013.14 1013.22 1013.28 1013.31 1013.34 1013.38 1013.46 1013.58 1013.75 1013.98 1014.26 1014.61 1015.00
1009.19 1009.32 1009.46 1009.59 1009.71 1009.84 1009.95 1010.06 1010.16 1010.25 1010.33 1010.40 1010.45 1010.50 1010.54 1010.58 1010.63 1010.69 1010.78 1010.90 1011.04 1011.21 1011.41 1011.63 1011.86 1012.09 1012.30 1012.50 1012.66 1012.80 1012.89 1012.95 1012.99 1013.01 1013.03 1013.06 1013.12 1013.22 1013.36 1013.56 1013.81 1014.12 1014.48
1009.23 1009.42 1009.61 1009.78 1009.94 1010.09 1010.22 1010.34 1010.43 1010.51 1010.57 1010.61 1010.65 1010.68 1010.72 1010.75 1010.80 1010.86 1010.94 1011.04 1011.17 1011.30 1011.46 1011.62 1011.79 1011.96 1012.11 1012.25 1012.37 1012.46 1012.53 1012.58 1012.61 1012.64 1012.67 1012.71 1012.78 1012.88 1013.02 1013.22 1013.46 1013.76 1014.10
1009.25 1009.48 1009.70 1009.90 1010.09 1010.26 1010.40 1010.52 1010.61 1010.68 1010.73 1010.77 1010.81 1010.84 1010.87 1010.91 1010.96 1011.02 1011.09 1011.18 1011.27 1011.37 1011.47 1011.57 1011.67 1011.77 1011.86 1011.94 1012.01 1012.07 1012.12 1012.16 1012.20 1012.25 1012.31 1012.38 1012.48 1012.60 1012.77 1012.97 1013.22 1013.52 1013.85
1009.25 1009.49 1009.73 1009.95 1010.16 1010.33 1010.48 1010.60 1010.70 1010.77 1010.83 1010.88 1010.92 1010.96 1011.00 1011.04 1011.10 1011.16 1011.22 1011.28 1011.34 1011.39 1011.44 1011.49 1011.53 1011.56 1011.59 1011.61 1011.64 1011.67 1011.71 1011.75 1011.81 1011.88 1011.97 1012.09 1012.22 1012.38 1012.58 1012.80 1013.06 1013.35 1013.68
1009.23 1009.49 1009.73 1009.96 1010.17 1010.35 1010.50 1010.63 1010.73 1010.81 1010.88 1010.93 1010.98 1011.03 1011.09 1011.14 1011.20 1011.25 1011.30 1011.34 1011.37 1011.39 1011.39 1011.38 1011.36 1011.34 1011.31 1011.30 1011.29 1011.30 1011.33 1011.38 1011.45 1011.55 1011.67 1011.81 1011.99 1012.18 1012.40 1012.64 1012.90 1013.19 1013.50
1009.21 1009.47 1009.72 1009.95 1010.16 1010.34 1010.49 1010.62 1010.73 1010.82 1010.89 1010.96 1011.03 1011.09 1011.15 1011.21 1011.27 1011.32 1011.36 1011.38 1011.38 1011.36 1011.32 1011.26 1011.19 1011.12 1011.06 1011.01 1010.97 1010.96 1010.98 1011.03 1011.11 1011.22 1011.36 1011.53 1011.72 1011.93 1012.16 1012.40 1012.66 1012.94 1013.22
1009.21 1009.47 1009.72 1009.95 1010.16 1010.34 1010.50 1010.63 1010.74 1010.84 1010.92 1011.00 1011.08 1011.15 1011.22 1011.28 1011.33 1011.37 1011.39 1011.39 1011.37 1011.32 1011.24 1011.15 1011.05 1010.94 1010.84 1010.75 1010.69 1010.66 1010.66 1010.70 1010.78 1010.88 1011.02 1011.19 1011.38 1011.59 1011.81 1012.04 1012.28 1012.54 1012.80
1009.23 1009.51 1009.76 1009.99 1010.20 1010.38 1010.54 1010.67 1010.79 1010.90 1010.99 1011.07 1011.15 1011.23 1011.30 1011.36 1011.41 1011.44 1011.44 1011.42 1011.37 1011.30 1011.19 1011.07 1010.94 1010.80 1010.67 1010.56 1010.47 1010.41 1010.38 1010.39 1010.44 1010.52 1010.64 1010.78 1010.95 1011.13 1011.33 1011.54 1011.76 1011.99 1012.23
1009.30 1009.58 1009.84 1010.08 1010.28 1010.47 1010.63 1010.76 1010.89 1011.00 1011.10 1011.19 1011.27 1011.35 1011.42 1011.48 1011.52 1011.54 1011.53 1011.50 1011.43 1011.33 1011.21 1011.06 1010.91 1010.74 1010.58 1010.44 1010.32 1010.22 1010.15 1010.12 1010.13 1010.17 1010.24 1010.34 1010.46 1010.60 1010.77 1010.95 1011.14 1011.35 1011.57
Thickness
5695 5692 5689 5687 5685 5683 5680 5678 5676 5674 5673 5672 5671 5670 5668 5667 5667 5666 5668 5669 5670 5670 5671 5671 5673 5673 5673 5674 5674 5673 5672 5670 5664 5661 5660 5659 5658 5657 5656 5656 5658 5659 5660
5692 5689 5686 5684 5681 5678 5677 5674 5672 5669 5668 5667 5666 5665 5664 5663 5663 5662 5662 5664 5665 5666 5667 5668 5669 5670 5670 5671 5671 5671 5670 5669 5665 5660 5656 5655 5653 5652 5650 5650 5651 5652 5653
5689 5685 5682 5679 5677 5675 5673 5671 5668 5665 5663 5662 5661 5660 5660 5660 5659 5658 5658 5659 5661 5662 5664 5665 5666 5666 5666 5667 5668 5668 5668 5666 5664 5659 5655 5651 5649 5647 5644 5644 5644 5645 5647
5685 5681 5678 5676 5674 5672 5669 5666 5663 5660 5658 5657 5656 5656 5656 5655 5655 5655 5655 5655 5657 5659 5661 5662 5663 5664 5665 5665 5665 5665 5664 5662 5660 5657 5653 5649 5646 5643 5641 5639 5638 5639 5640
5681 5677 5675 5672 5670 5667 5664 5661 5659 5656 5655 5653 5651 5651 5651 5651 5652 5651 5651 5652 5652 5655 5657 5659 5661 5663 5664 5665 5665 5664 5662 5659 5657 5654 5651 5648 5645 5642 5641 5639 5636 5634 5634
5676 5673 5670 5666 5663 5662 5659 5657 5654 5652 5650 5649 5648 5647 5647 5649 5650 5650 5650 5649 5650 5652 5654 5656 5658 5660 5662 5663 5664 5664 5663 5661 5658 5655 5652 5650 5649 5647 5643 5639 5634 5630 5629
5671 5667 5664 5661 5658 5656 5654 5651 5649 5648 5646 5645 5645 5644 5644 5645 5646 5647 5649 5648 5649 5650 5652 5653 5656 5658 5660 5660 5661 5662 5662 5663 5663 5660 5656 5656 5653 5652 5646 5639 5636 5632 5630
5667 5663 5659 5656 5653 5651 5648 5647 5645 5643 5641 5640 5640 5640 5640 5641 5643 5644 5646 5646 5647 5649 5650 5651 5653 5654 5656 5657 5657 5657 5659 5660 5661 5661 5660 5659 5658 5654 5650 5646 5638 5628 5622
5661 5657 5654 5652 5649 5646 5644 5642 5640 5638 5637 5635 5635 5635 5634 5636 5639 5640 5642 5641 5642 5645 5646 5648 5650 5651 5653 5653 5651 5652 5654 5656 5656 5656 5656 5654 5653 5650 5645 5639 5632 5625 5620
5655 5652 5649 5647 5645 5643 5640 5638 5635 5633 5632 5630 5629 5629 5630 5631 5633 5635 5637 5636 5637 5638 5641 5643 5645 5646 5648 5648 5646 5646 5647 5650 5650 5650 5648 5648 5647 5646 5643 5641 5637 5629 5621
5648 5646 5643 5641 5639 5637 5634 5631 5628 5625 5624 5623 5622 5623 5623 5625 5627 5629 5631 5630 5631 5633 5634 5636 5637 5640 5641 5641 5640 5640 5641 5642 5642 5643 5642 5641 5640 5641 5639 5637 5635 5633 5627
5640 5638 5636 5634 5632 5630 5626 5622 5619 5616 5614 5613 5613 5614 5616 5618 5620 5623 5626 5627 5628 5628 5629 5630 5631 5632 5633 5633 5632 5632 5633 5634 5634 5635 5636 5636 5636 5636 5635 5632 5629 5627 5626
5632 5629 5627 5625 5623 5621 5617 5612 5608 5606 5604 5604 5604 5605 5607 5610 5613 5617 5620 5622 5623 5623 5624 5625 5625 5625 5625 5625 5625 5625 5625 5624 5625 5627 5629 5631 5631 5630 5628 5625 5622 5619 5617
5626 5622 5619 5617 5614 5611 5607 5602 5598 5596 5595 5596 5596 5596 5598 5602 5606 5610 5613 5616 5617 5617 5617 5618 5618 5617 5617 5617 5616 5616 5616 5616 5617 5619 5621 5622 5623 5623 5621 5619 5615 5612 5609
5621 5617 5613 5610 5606 5602 5596 5591 5588 5587 5589 5590 5590 5591 5592 5596 5602 5606 5608 5610 5611 5611 5611 5610 5610 5610 5610 5609 5609 5609 5610 5610 5611 5613 5614 5615 5615 5615 5614 5612 5610 5607 5606
5617 5614 5610 5605 5601 5597 5592 5586 5582 5582 5584 5586 5587 5588 5590 5594 5599 5603 5605 5606 5606 5606 5605 5604 5603 5603 5603 5604 5604 5604 5604 5605 5607 5608 5609 5610 5610 5610 5609 5606 5605 5604 5604
5615 5612 5607 5603 5599 5594 5590 5587 5583 5581 5581 5583 5584 5587 5589 5592 5596 5599 5601 5601 5600 5600 5599 5598 5598 5598 5598 5597 5598 5598 5598 5599 5601 5602 5603 5604 5605 5604 5604 5602 5601 5600 5600
5614 5612 5607 5603 5599 5595 5591 5588 5585 5584 5582 5582 5582 5584 5586 5588 5591 5593 5594 5594 5594 5593 5593 5593 5593 5593 5592 5591 5591 5591 5591 5592 5593 5594 5596 5597 5598 5598 5598 5598 5597 5597 5595
5613 5610 5606 5603 5600 5597 5594 5591 5588 5585 5583 5582 5581 5581 5582 5584 5585 5586 5588 5589 5589 5589 5588 5588 5587 5587 5585 5584 5584 5583 5583 5583 5584 5585 5587 5588 5590 5590 5591 5592 5592 5590 5588
5613 5611 5607 5603 5600 5598 5595 5593 5590 5587 5584 5582 5581 5580 5580 5580 5581 5582 5583 5584 5584 5584 5584 5583 5582 5581 5580 5579 5577 5576 5574 5574 5575 5576 5578 5580 5581 5583 5584 5585 5585 5584 5583
5612 5610 5608 5603 5601 5598 5595 5593 5590 5587 5584 5582 5579 5579 5579 5578 5578 5579 5579 5580 5580 5580 5580 5579 5578 5576 5575 5574 5572 5570 5568 5568 5568 5568 5570 5572 5574 5575 5577 5578 5578 5579 5577
5612 5609 5606 5604 5602 5599 5596 5594 5591 5588 5585 5583 5580 5579 5579 5578 5578 5577 5577 5577 5577 5577 5576 5575 5574 5573 5571 5570 5568 5567 5565 5564 5564 5564 5564 5566 5567 5569 5570 5571 5572 5572 5571
5614 5610 5607 5604 5602 5600 5596 5594 5591 5589 5586 5584 5582 5580 5579 5578 5578 5577 5577 5576 5575 5575 5574 5572 5571 5570 5569 5568 5567 5565 5564 5564 5563 5563 5562 5562 5563 5564 5565 5565 5566 5565 5564
5616 5613 5609 5606 5603 5599 5597 5594 5592 5590 5588 5586 5584 5582 5580 5579 5578 5577 5577 5576 5575 5573 5572 5571 5569 5568 5568 5567 5566 5565 5564 5564 5564 5563 5563 5562 5561 5561 5562 5562 5561 5561 5560
5619 5616 5612 5608 5605 5601 5598 5596 5593 5591 5589 5588 5586 5584 5581 5580 5579 5578 5576 5575 5574 5573 5571 5570 5569 5567 5567 5566 5565 5565 5565 5564 5563 5563 5562 5562 5561 5560 5559 5558 5557 5556 5554
5622 5619 5615 5611 5607 5604 5601 5598 5596 5594 5592 5589 5587 5585 5583 5581 5579 5578 5576 5575 5574 5572 5571 5569 5568 5567 5566 5565 5565 5564 5564 5564 5563 5562 5561 5560 5559 5557 5556 5554 5553 5551 5550